Location: Spring Creek
(38.2870°N, 100.2160°W)
Time: 22:38:53
(UTC+00:00)

Cosmos 2297 Rocket - Pass Details

Date: 03 October 2021
Orbit: 841 x 842 km, 71.0° (Epoch: 17 October)

Event Time Altitude Azimuth Distance (km) Brightness Sun altitude
Rises 01:52:59 0° 349° (N) 3,403 5.6 -18.7°
Reaches altitude 10° 01:56:00 10° 5° (N) 2,465 4.7 -19.3°
Enters shadow 02:00:01 22° 50° (NE) 1,749 3.5 -20.1°
